Probability
2 3 3 1 0 0 1 2 2 2 1 0 0 0 0 0 0 0 0 0 0 0 0 0 0 0 0 0 0 0 0 0 0 0 0 0 0 0 0 0 0 0 0
3 3 3 2 1 0 0 1 1 1 0 0 0 0 0 0 0 0 0 0 0 0 0 0 0 0 0 0 0 0 0 0 0 0 0 0 0 0 0 0 0 0 0
5 4 3 3 1 0 0 0 0 0 0 0 0 0 0 0 0 0 0 0 0 0 0 0 0 0 0 0 0 0 0 0 0 0 0 0 0 0 0 0 0 0 0
6 4 3 3 1 0 0 0 0 0 0 0 0 0 0 0 0 0 0 0 0 0 0 0 0 0 0 0 0 0 0 0 0 0 0 0 0 0 0 0 0 0 0
6 4 3 3 2 0 0 0 0 0 0 0 0 0 0 0 0 0 0 0 0 0 0 0 0 0 0 0 0 0 0 0 0 0 0 0 0 0 0 0 0 0 0
5 3 2 3 2 1 0 0 0 0 0 0 0 0 0 0 0 0 0 0 0 0 0 0 0 0 0 0 0 0 0 0 0 0 0 0 0 0 0 0 0 0 0
5 3 2 3 2 1 0 0 0 0 0 0 0 0 0 0 0 0 0 0 0 0 0 0 0 0 0 0 0 0 0 0 0 0 0 0 0 0 0 0 0 0 0
5 3 2 2 2 1 0 0 0 0 0 0 0 0 0 0 0 0 0 0 0 0 0 0 0 0 0 0 0 0 0 0 0 0 0 0 0 0 0 0 0 0 0
5 5 3 1 1 1 1 1 0 0 0 0 0 0 0 0 0 0 0 0 0 0 0 0 0 0 0 0 0 0 0 0 0 0 0 0 0 0 0 0 0 0 0
6 6 3 1 1 1 2 2 1 0 0 0 0 0 0 0 0 0 0 0 0 0 0 0 0 0 0 0 0 0 0 0 0 0 0 0 0 0 0 0 0 0 0
8 7 4 2 1 2 3 3 2 1 0 0 0 0 0 0 0 0 0 0 0 0 0 0 0 0 0 0 0 0 0 0 0 0 0 0 0 0 0 0 0 0 0
9 8 5 3 2 3 4 5 4 2 1 0 0 0 0 0 0 0 0 0 0 0 0 0 0 0 0 0 0 0 0 0 0 0 0 0 0 0 0 0 0 0 0
10 9 7 6 5 4 4 5 5 4 2 1 0 0 0 0 0 0 0 0 0 0 0 0 0 0 0 0 0 0 0 0 0 0 0 0 0 0 0 0 0 0 0
11 9 9 9 7 5 4 5 5 4 3 1 1 1 0 0 0 0 0 0 0 0 0 0 0 0 0 0 0 0 0 0 0 0 0 0 0 0 0 0 0 0 0
10 9 10 11 8 5 4 4 4 3 3 3 2 2 1 0 0 0 0 0 0 0 0 0 0 0 0 0 0 0 0 0 0 0 0 0 0 0 0 0 0 0 0
10 10 11 12 9 6 4 3 3 3 3 3 3 2 1 0 0 0 0 0 0 0 0 0 0 0 0 0 0 0 0 0 0 0 0 0 0 0 0 0 0 0 0
8 9 11 12 9 7 5 4 4 3 3 3 3 1 0 0 0 0 0 0 0 0 0 0 0 0 0 0 0 0 0 0 0 0 0 0 0 0 0 0 0 0 0
7 8 10 10 9 7 7 6 5 4 3 3 2 1 0 0 0 0 0 0 0 0 0 0 0 0 0 0 0 0 0 0 0 0 0 0 0 0 0 0 0 0 0
8 7 7 8 8 7 8 8 6 4 3 3 2 1 0 0 0 0 0 0 0 0 0 0 0 0 0 0 0 0 0 0 0 0 0 0 0 0 0 0 0 0 0
9 8 7 7 7 8 10 10 7 5 4 3 2 1 0 0 0 0 0 0 0 0 0 0 0 0 0 0 0 0 0 0 0 0 0 0 0 0 0 0 0 0 0
12 11 10 8 7 8 10 10 7 5 4 3 2 1 0 0 0 0 0 0 0 0 0 0 0 0 0 0 0 0 0 0 0 0 0 0 0 0 0 0 0 0 0
21 19 15 12 10 8 8 8 6 5 4 3 2 1 0 0 0 0 0 0 0 0 0 0 0 0 0 0 0 0 0 0 0 0 0 0 0 0 0 0 0 0 0
31 27 21 17 13 9 7 6 5 4 2 1 1 0 0 0 0 0 0 0 0 0 0 0 0 0 0 0 0 0 0 0 0 0 0 0 0 0 0 0 0 0 0
37 34 30 23 18 12 9 6 4 3 2 0 0 0 0 0 0 0 0 0 0 0 0 0 0 0 0 0 0 0 0 0 0 0 0 0 0 0 0 0 0 0 0
37 36 33 29 23 17 11 6 5 4 2 0 0 0 0 0 0 0 0 0 0 0 0 0 0 0 0 0 0 0 0 0 0 0 0 0 0 0 0 0 0 0 0
34 34 33 30 26 20 13 8 6 5 2 0 0 0 0 0 0 0 0 0 0 0 0 0 0 0 0 0 0 0 0 0 0 0 0 0 0 0 0 0 0 0 0
Wind_Speed
7 8 16 16 16 16 16 17 17 17 18 18 18 18 17 17 17 16 16 15 15 15 15 14 14 14 14 14 14 14 14 14 14 14 15 15 15 14 14 15 14 12 16
11 11 17 17 16 16 16 16 16 17 17 17 17 17 16 16 16 16 15 15 14 15 14 14 14 14 14 14 14 14 14 14 14 14 14 13 14 14 14 14 14 10 15
14 11 14 17 17 16 16 16 16 16 16 16 16 16 16 15 15 15 15 14 14 14 14 14 14 14 14 14 14 14 14 13 13 14 13 9 10 13 14 14 14 14 14
14 10 12 18 17 16 16 16 15 15 15 15 15 15 15 15 14 14 14 14 14 14 14 14 14 14 14 14 13 13 13 13 13 13 7 7 8 12 13 14 14 14 14
12 9 13 19 18 17 16 15 15 14 15 14 14 14 14 14 14 14 14 14 14 14 14 14 14 14 13 13 12 12 13 12 13 11 7 7 6 11 13 13 13 13 13
11 9 13 19 18 17 16 15 14 14 14 14 14 13 13 13 13 13 13 13 13 13 13 13 13 13 12 11 11 11 12 12 11 8 7 7 6 10 12 12 13 13 12
10 8 11 18 18 17 16 15 14 14 14 13 13 13 13 13 13 13 13 12 12 13 13 12 12 11 11 10 10 11 11 12 8 7 6 6 6 10 12 12 12 12 11
11 9 10 18 18 16 16 15 14 14 13 13 13 12 12 12 12 12 12 12 12 12 12 11 11 11 9 9 10 11 12 11 9 7 6 6 8 10 11 11 11 11 11
9 8 7 9 12 15 15 15 14 13 13 13 12 12 12 12 11 11 11 11 11 11 11 10 10 10 9 9 10 10 11 11 7 5 6 5 8 10 11 11 10 10 10
8 7 6 7 7 7 8 14 14 13 13 12 12 12 12 11 11 11 9 10 10 10 10 9 9 8 8 8 9 10 11 9 6 6 4 5 9 10 10 10 10 9 9
9 6 7 7 6 6 6 10 11 12 12 11 9 11 9 4 5 5 7 9 9 9 9 8 8 7 7 7 9 9 8 4 5 4 3 6 8 9 9 9 9 8 8
12 9 7 7 7 6 6 5 4 4 5 4 4 5 4 4 3 4 5 8 8 8 7 7 7 7 6 3 5 7 3 5 4 3 3 7 8 8 8 8 8 8 7
12 11 8 8 7 6 4 4 3 3 3 4 5 5 4 3 2 2 2 2 3 4 4 4 4 3 3 3 3 3 4 4 2 2 3 7 7 7 7 7 7 7 6
13 11 9 8 7 6 5 4 4 3 3 3 3 5 4 2 2 2 2 2 2 2 3 3 2 2 3 3 3 4 4 3 2 2 3 6 6 7 7 6 6 6 6
12 12 10 9 8 6 5 4 5 4 3 3 3 3 4 3 3 2 2 2 2 2 2 2 2 2 2 3 3 4 4 3 3 2 1 5 5 5 6 6 6 5 5
13 13 11 10 9 7 5 4 4 4 4 3 3 4 4 3 3 3 2 2 1 2 2 2 2 2 2 2 2 3 3 3 3 3 2 2 3 4 5 5 5 5 5
13 12 11 11 9 8 7 6 5 4 4 4 3 4 4 4 4 3 2 2 1 2 2 2 2 2 2 2 2 2 2 2 2 2 2 1 1 2 4 4 4 4 4
11 11 11 11 10 8 7 6 4 4 4 3 3 3 4 5 4 3 3 2 2 2 2 2 2 2 2 1 1 1 1 1 2 2 2 1 1 1 2 3 3 3 4
12 12 12 10 11 10 8 6 5 5 4 4 3 3 4 5 5 4 3 2 3 2 2 2 2 2 2 2 2 1 1 1 1 1 2 2 1 1 0 2 3 3 3
10 10 11 9 10 9 6 5 3 4 3 3 4 4 5 4 5 4 3 3 3 3 2 2 3 2 2 2 2 2 2 1 0 1 1 1 1 2 1 1 0 1 2
11 11 11 10 9 8 6 6 5 5 4 3 4 5 5 5 6 5 3 4 4 3 3 4 3 3 2 2 3 2 2 2 1 0 1 1 2 2 2 2 1 0 1
13 12 12 11 10 10 8 6 4 4 3 3 3 4 5 6 6 6 5 4 4 3 4 3 3 2 2 1 3 2 1 2 2 1 0 1 2 1 2 2 2 2 1
13 14 13 12 11 10 8 5 4 3 2 2 3 3 4 5 6 5 6 5 5 4 4 4 4 4 3 1 1 3 3 2 1 1 1 1 1 1 2 2 3 2 2
13 12 11 11 10 10 9 9 9 7 5 5 5 4 4 5 5 6 6 6 5 4 4 4 4 3 4 3 1 1 1 3 2 0 1 1 1 2 2 2 2 3 3
11 10 10 10 10 10 10 11 10 7 5 4 4 5 5 4 5 5 6 5 5 4 4 4 4 3 3 3 3 2 2 2 1 2 1 1 1 1 2 2 2 2 3
9 9 9 9 9 10 11 11 10 10 8 8 7 7 5 3 3 5 5 5 5 4 5 4 4 4 3 3 3 3 3 3 3 2 2 1 1 1 1 2 2 3 3
Wind_Direction
154 154 145 138 131 125 120 117 115 114 114 114 114 114 114 114 113 112 111 110 109 109 109 108 108 109 108 106 104 104 105 104 103 104 104 104 103 103 103 103 101 102 107
145 151 146 140 135 129 124 122 120 119 118 117 116 116 115 114 114 112 112 111 109 109 109 108 109 109 108 106 106 106 105 105 105 105 104 103 104 103 104 105 105 108 110
142 147 144 141 137 133 130 127 125 123 121 120 119 119 117 116 116 115 114 112 111 110 109 110 111 110 108 108 107 106 105 103 104 103 99 97 103 105 107 108 108 108 109
142 142 144 143 140 137 134 131 129 126 124 123 122 121 120 119 118 117 115 114 112 111 111 111 111 110 110 109 109 108 106 104 102 99 90 94 101 107 107 108 108 109 108
140 140 149 146 143 140 137 135 133 130 128 126 125 123 122 121 120 119 117 115 113 113 114 113 112 111 111 112 112 111 109 108 105 95 87 86 93 107 108 109 109 110 108
139 142 152 148 146 144 141 138 136 135 133 131 129 128 126 124 122 121 118 116 116 116 115 113 113 111 111 113 116 116 113 110 103 98 94 96 101 110 110 110 109 110 108
142 146 152 150 149 147 145 142 140 138 136 134 133 132 130 127 124 122 120 118 117 117 116 114 112 110 109 112 116 117 117 116 108 103 100 101 107 110 110 109 109 109 109
145 145 150 153 152 151 149 147 144 142 140 137 137 136 133 130 127 125 124 122 120 118 117 115 113 109 106 110 115 116 120 120 114 109 105 105 111 111 112 110 109 108 109
144 143 146 151 152 154 153 151 149 146 143 142 142 140 137 135 132 129 127 125 123 121 119 116 114 109 105 112 119 121 124 122 113 115 116 110 117 117 116 114 113 112 112
144 143 142 142 143 146 153 156 154 151 149 147 147 144 141 139 135 131 127 129 127 125 122 119 114 108 103 114 122 124 125 119 115 115 114 122 124 124 122 119 117 116 114
155 149 145 143 140 139 148 162 157 155 155 151 150 147 134 108 110 121 133 135 132 129 125 119 114 107 99 108 122 121 117 114 120 119 119 131 132 130 126 123 120 119 118
168 165 154 150 146 146 159 147 137 140 141 131 124 120 106 102 109 119 140 137 133 127 120 112 104 96 88 87 110 110 106 120 120 125 136 141 139 137 134 132 129 126 124
169 169 163 158 152 152 146 138 127 119 118 117 118 116 113 103 98 92 90 105 103 104 86 86 78 76 91 101 100 111 122 122 125 133 146 150 148 145 143 141 141 137 136
170 173 166 160 155 153 144 141 133 131 130 130 129 130 125 119 113 110 98 89 81 83 88 81 83 85 97 110 123 132 135 132 132 124 154 158 157 158 156 154 154 151 146
174 174 171 165 162 156 146 152 149 143 144 142 139 144 144 141 142 133 121 105 102 99 101 100 98 101 101 109 130 141 145 139 137 132 143 167 165 167 169 169 169 165 161
178 177 172 171 167 159 159 159 152 149 145 145 154 162 158 150 149 145 138 128 124 121 116 116 117 113 108 115 124 136 142 134 139 140 135 153 171 179 186 184 183 180 178
179 176 175 174 168 166 165 167 158 155 153 161 166 167 166 160 159 155 151 152 151 135 125 102 87 80 97 110 113 123 137 148 149 148 144 131 161 199 197 195 192 193 192
176 176 179 180 173 173 170 166 158 160 161 166 165 168 173 170 164 157 159 166 152 136 125 118 106 93 91 106 109 103 119 142 157 159 155 150 146 192 215 209 200 197 196
180 178 179 179 175 176 170 164 161 161 165 166 165 172 177 173 166 158 165 162 148 137 136 144 113 118 121 121 120 80 69 89 142 168 178 180 176 178 198 245 224 215 211
181 180 181 180 175 168 159 151 150 156 165 164 172 180 176 172 166 158 162 160 152 140 137 130 120 100 110 126 108 78 46 47 95 200 216 199 199 200 192 213 242 255 234
181 179 182 181 175 167 165 168 168 178 176 173 179 180 179 174 166 162 166 158 158 158 159 146 125 109 95 110 95 63 28 28 52 230 231 216 220 211 194 197 186 193 269
184 184 184 183 180 178 177 172 168 164 164 176 179 175 180 177 171 173 166 166 165 152 147 151 134 122 108 118 119 107 55 358 355 6 269 232 231 208 220 216 197 193 202
187 187 189 185 182 179 169 154 140 121 107 149 171 180 186 183 178 172 170 166 167 162 166 168 154 145 144 123 116 140 147 203 279 332 324 271 230 217 232 227 214 210 206
191 188 185 182 178 175 168 167 168 172 178 187 178 181 177 180 179 175 170 170 167 167 168 174 164 151 143 149 127 94 128 152 150 217 323 323 266 235 237 236 221 210 208
183 180 179 174 176 175 175 178 178 179 176 165 162 171 176 175 180 178 170 166 167 170 173 169 160 156 153 156 157 145 119 85 104 145 216 295 316 279 249 235 227 217 212
170 173 175 174 180 179 180 181 183 179 170 165 174 180 182 174 176 180 173 170 171 170 171 173 169 165 164 155 156 157 157 159 173 161 177 218 252 295 287 247 234 229 222